Find Starlink 31431

NORAD ID: 59002 Int'l Des: 2024-036 Owner: SPXS Country: US Constellation: starlink operational
LEOCIRCULAR

Current View

Loading 3D Globe...

About Starlink 31431

Starlink 31431 (NORAD 59002) is a starlink constellation satellite (v2 mini) launched Feb 23, 2024 by SPXS of US. It operates in LEO, CIRCULAR orbit with a mass of 730.00 kg.

About Starlink 31431

Description loading...

Upcoming Passes

Passes for default location (London). Set your location on the main map for personalized predictions.

Altitude History

Loading altitude history...

Two-Line Element Set

1 59002U 24036E 26171.45255257 -.00000301 00000-0 19648-5 0 9991
2 59002 53.1616 321.0245 0001290 99.2770 260.8377 15.30191976131058
Epoch: Jun 20, 2026 • Age: 19 hours

Current Status

Altitude 482.6 km
Velocity 7.62 km/s
Sub-Earth Point -23.71°S, 54.24°W
Launch Date Feb 23, 2024
Age 2.3 years
Type internet

Technical Details

Classification Payload
Mass 730.00 kg
Dry Mass 700.00 kg
Total Mass 730.00 kg
Length 0.30 m
Diameter 4.10 m
Span 29.00 m
Shape Box + pan
Manufacturer SPXS
Bus Type Starlink V2M
Phase Status In Orbit
Owner/State SPXS/US

Most Searched